Dewpoint
24 17 15 13 16 15 15 16 18 13 15 15 13 9 8 7 8 8 10 15 18 12 7 7 7 4 10 8 8 10 11 9 6 3 -0 -1 -1 3 8 10 12 12 13 16 16 16 16 16 16 17 15 13 11 10 8 6 7 7 5 5 3 2 1 1 1 1 4 4 6 4 -2 -1 -3 0 1 -3 -0 3 4 5 3 5 3 7 10 12
27 15 16 17 16 13 15 19 20 19 16 12 10 11 12 8 6 8 8 10 13 13 8 7 6 5 9 6 7 7 6 5 4 2 0 -1 2 8 10 12 13 13 16 16 16 16 15 16 18 17 16 16 12 11 9 9 7 6 5 4 2 2 1 1 0 3 3 4 7 4 2 -1 -1 -1 -2 -0 -1 2 2 4 5 6 5 6 6 9
15 14 16 17 16 17 19 18 16 15 13 9 11 8 11 6 7 10 11 12 11 13 7 5 6 4 7 4 3 3 2 3 2 1 1 4 8 10 11 12 14 15 16 16 16 16 16 16 16 16 15 13 12 11 10 9 7 7 7 6 5 5 5 3 2 5 3 -0 4 3 2 -0 -0 -1 -1 -1 4 2 3 2 5 5 5 5 4 5
14 13 12 17 17 13 13 13 14 15 14 7 6 7 7 6 7 6 8 10 9 13 8 8 7 3 5 3 2 2 1 2 5 7 7 9 8 9 11 12 14 14 15 16 15 14 13 13 13 14 14 13 13 11 9 7 6 4 5 5 5 6 6 6 6 7 6 5 4 7 8 6 3 1 5 2 1 3 1 3 3 4 4 4 4 5
10 15 15 20 18 13 12 13 13 10 12 9 7 7 10 6 6 5 6 10 13 14 13 7 2 0 6 2 -1 0 2 3 5 3 4 4 9 11 13 14 14 14 15 15 12 10 9 8 8 9 11 12 11 11 8 7 5 2 3 5 6 5 6 7 7 6 7 7 8 8 9 9 8 6 5 2 2 1 3 4 3 2 3 4 3 4
15 15 16 18 16 13 12 9 11 10 8 8 7 6 6 6 5 7 8 6 1 -2 10 4 -4 -5 1 1 -1 -1 1 3 3 3 4 8 10 12 12 10 10 9 10 10 11 10 10 7 7 8 10 9 8 6 5 3 3 4 4 3 3 3 6 7 7 7 6 6 6 5 5 5 3 3 3 2 2 3 0 -0 1 3 1 1 0 -0
13 15 16 15 13 13 11 7 11 12 10 8 8 8 9 9 8 6 6 5 2 0 6 6 -4 -3 -5 2 1 2 3 2 3 6 8 9 10 10 11 8 8 7 6 8 8 8 3 4 6 6 3 -0 -1 -2 -1 0 3 4 4 5 4 4 3 4 6 8 7 7 4 3 3 4 5 4 5 1 1 2 0 5 2 3 1 1 -2 -4
20 16 16 16 12 9 8 5 7 12 10 6 8 8 12 9 7 6 6 3 1 4 7 2 -1 -4 -3 4 4 5 4 5 6 8 10 10 11 10 9 5 1 0 -0 0 -1 -1 2 1 -2 -3 -1 -1 0 4 6 5 5 5 4 5 6 6 7 6 7 7 8 8 7 7 6 5 6 4 3 2 1 2 4 3 1 1 -0 -0 -2 -3
13 15 13 14 8 6 6 7 11 12 10 8 10 9 11 9 8 7 7 2 0 1 3 -1 -4 -4 -2 5 7 5 5 6 8 7 8 9 7 9 9 2 -3 -5 -5 -3 1 1 -1 -2 -2 2 4 4 5 7 7 5 5 5 5 7 7 7 7 7 7 7 6 7 8 6 6 7 7 5 6 6 6 4 4 1 -0 -1 -1 -1 -2 -3
18 12 16 15 10 7 11 9 9 10 5 11 10 13 11 10 6 6 2 3 4 -0 1 -4 -3 -4 -6 4 3 3 4 7 6 7 8 9 4 -0 1 -1 -4 -4 -3 -0 2 -0 -1 0 2 4 4 6 7 9 9 8 8 9 10 11 11 10 10 9 8 8 8 7 6 7 7 8 7 6 5 5 3 3 3 0 1 -1 -1 -0 -2 -3
12 28 25 21 9 11 11 10 14 8 12 13 15 9 7 6 4 2 2 5 4 -3 -1 -7 -2 -6 -3 1 2 2 6 10 8 8 8 7 3 -1 -4 -5 -2 -3 -1 2 0 -2 -1 1 2 3 4 5 6 6 4 5 5 5 7 7 4 3 5 10 11 10 10 8 6 7 9 8 6 6 5 4 4 3 2 0 -0 -0 -1 -1 -2 -1
24 25 17 15 26 17 15 12 16 15 11 12 5 5 4 2 3 2 4 6 -1 -2 -5 -3 -5 -3 -6 -5 2 6 10 10 10 10 3 0 -3 -5 -3 -2 -7 -4 2 -0 -3 -4 -1 -1 3 4 4 3 3 2 -2 -1 -3 -1 -3 -4 -2 -1 -1 0 10 12 12 12 11 9 8 6 5 5 5 4 4 3 3 2 0 -0 0 -2 -1 -3
10 9 9 15 23 15 10 8 10 15 10 8 5 6 4 3 4 1 3 -1 -2 -3 -3 -1 -5 -4 -7 0 3 5 6 11 11 7 2 -0 -4 -4 -3 -4 -6 1 -1 -5 -7 -1 2 2 3 4 3 -2 -3 -3 -4 -4 -3 -3 -1 -1 -0 1 2 8 11 10 9 9 9 9 8 7 7 7 6 5 4 4 2 1 -1 -2 -3 -3 -3 -6
8 11 10 13 13 16 10 3 4 4 6 5 4 6 4 2 2 1 0 1 -1 -1 -0 -2 -3 -7 -8 2 5 4 7 7 8 5 1 -0 -5 -8 -6 -6 -9 0 -5 -9 -3 3 3 4 4 2 -1 -3 -4 -4 -6 -4 -0 -0 -1 0 3 6 10 10 10 9 9 8 8 8 8 7 5 4 4 3 2 0 -1 -1 -2 -3 -4 -4 -4 -5
8 6 8 9 5 14 9 7 6 5 5 5 5 5 6 4 4 3 1 -2 0 1 -1 -3 -0 -2 -5 -1 5 5 9 8 3 3 2 -1 -9 -8 -8 -17 -13 -5 -9 -8 0 1 2 4 1 -0 -2 -3 -3 -4 -6 -5 -3 -3 -4 -3 -4 -0 9 7 5 4 4 5 6 5 4 4 3 2 2 0 1 -2 -3 -4 -4 -4 -3 -3 -5 -3
4 5 9 13 13 11 8 11 12 8 6 5 5 6 5 4 7 4 3 3 4 -1 -3 -1 -3 -4 -2 4 5 9 2 3 0 1 0 -8 -10 -9 -9 -9 -15 -8 -9 -2 1 1 2 1 -1 -2 -2 -2 -4 -5 -6 -6 -3 -3 -6 -5 -3 -2 -1 1 2 -1 -1 0 1 2 1 1 1 1 -1 -1 -2 -5 -5 -4 -4 -3 -2 -1 0 1
7 2 9 18 13 10 9 12 13 10 6 5 5 5 4 6 4 4 1 -0 -2 -1 -6 -1 -5 -6 1 1 3 1 1 -0 1 -1 -1 -7 -12 -8 -17 -16 -13 -13 -4 1 -1 -1 -1 -3 -6 -4 -3 -4 -5 -7 -7 -6 -6 -6 -6 -6 -5 -4 -4 -4 -2 -1 -1 -1 -3 -2 -3 -3 -2 -3 -5 -7 -8 -7 -3 -2 -2 -2 -0 1 -1 -1
9 6 13 9 7 10 11 10 11 12 9 7 6 4 8 6 5 6 -0 1 -2 -4 -5 -4 -2 -3 -8 -9 5 5 1 -1 -2 -2 -10 -18 -15 -22 -17 -16 -15 -10 -1 -1 -3 -5 -6 -7 -4 -5 -4 -6 -7 -8 -7 -7 -6 -6 -5 -5 -4 -4 -3 -3 -4 -4 -5 -7 -6 -6 -6 -4 -4 -4 -5 -6 -4 -5 -5 -4 -6 -7 -5 -2 -3 -4
15 11 7 9 8 12 14 10 9 12 11 6 5 9 6 2 0 1 2 -3 -4 -5 -5 -2 -4 -1 -5 0 4 2 1 0 -2 -7 -9 -11 -23 -16 -19 -17 -13 -3 -1 -3 -5 -7 -7 -6 -4 -6 -7 -9 -8 -6 -7 -6 -6 -7 -5 -3 -5 -6 -7 -7 -7 -6 -7 -7 -8 -7 -3 -3 -3 -3 -3 -3 -3 -5 -6 -7 -9 -9 -8 -6 -5 -4
17 10 7 9 8 9 6 5 7 6 9 8 8 5 6 4 3 1 2 1 -1 -4 -3 -5 -1 -7 -8 5 2 1 0 -2 -5 -7 -18 -18 -17 -21 -18 -17 -11 -2 -3 -5 -7 -8 -7 -4 -6 -7 -10 -10 -9 -7 -8 -9 -9 -10 -9 -8 -7 -7 -8 -9 -8 -6 -6 -5 -5 -5 -4 -4 -4 -3 -4 -4 -5 -6 -7 -9 -10 -10 -10 -9 -7 -8
14 9 7 6 9 9 5 4 5 6 9 7 7 7 6 7 6 7 5 3 -1 -1 -4 -6 -7 -7 -3 -0 0 2 1 -2 -7 -11 -13 -21 -25 -20 -17 -15 -7 -4 -6 -7 -6 -8 -6 -6 -7 -9 -11 -9 -9 -8 -10 -12 -12 -11 -10 -10 -9 -10 -9 -8 -8 -7 -8 -7 -7 -5 -7 -6 -6 -6 -6 -7 -7 -7 -8 -8 -7 -9 -10 -9 -10 -10
15 9 8 7 6 3 4 8 6 6 6 5 6 6 5 5 3 1 -1 10 4 -1 -4 -4 -7 -2 -3 -4 -3 -3 -5 -8 -5 -12 -21 -19 -22 -20 -17 -14 -5 -6 -7 -7 -8 -9 -6 -8 -10 -12 -11 -10 -11 -13 -14 -14 -14 -12 -11 -11 -11 -11 -11 -10 -9 -9 -9 -8 -8 -8 -8 -8 -8 -8 -8 -7 -7 -6 -7 -7 -8 -8 -7 -8 -8 -9
17 11 9 9 4 4 7 8 7 6 6 5 5 5 5 7 5 1 -2 1 3 2 4 2 -3 -4 5 8 -3 -6 -7 -7 -10 -16 -20 -21 -22 -20 -16 -11 -6 -7 -7 -7 -8 -8 -8 -9 -11 -12 -11 -12 -13 -14 -14 -14 -12 -12 -12 -11 -11 -11 -11 -11 -10 -10 -9 -9 -9 -8 -8 -8 -8 -8 -7 -7 -7 -7 -7 -7 -6 -5 -5 -6 -6 -7
20 10 8 9 6 7 8 6 6 8 4 5 3 4 6 5 5 3 2 4 1 2 -3 -4 -4 -6 -9 -7 -8 -8 -7 -6 -11 -19 -27 -33 -17 -19 -15 -10 -9 -8 -7 -8 -9 -8 -8 -10 -11 -12 -12 -12 -14 -15 -15 -13 -12 -12 -11 -11 -12 -12 -12 -11 -11 -10 -10 -9 -9 -9 -8 -8 -7 -7 -7 -7 -6 -6 -6 -6 -5 -4 -4 -5 -6 -6
12 7 5 6 7 6 4 5 5 6 7 6 6 3 4 6 7 7 6 3 -0 0 -2 -3 -7 -9 -16 -9 -9 -8 -7 -7 -10 -19 -21 -23 -18 -17 -13 -10 -9 -8 -8 -9 -9 -8 -9 -11 -12 -14 -13 -13 -14 -14 -14 -12 -12 -12 -11 -12 -12 -12 -12 -11 -10 -10 -10 -9 -9 -9 -8 -8 -7 -7 -6 -6 -5 -5 -4 -4 -3 -3 -4 -4 -4 -4
11 9 6 4 4 4 4 4 5 5 8 3 4 4 3 8 7 4 1 1 -2 -2 -1 -2 -8 -15 -11 -7 -10 -9 -5 -9 -15 -20 -17 -18 -21 -15 -13 -10 -9 -8 -8 -9 -9 -9 -10 -11 -13 -15 -13 -13 -14 -14 -13 -12 -11 -12 -12 -13 -13 -12 -12 -11 -10 -10 -9 -9 -9 -8 -8 -7 -7 -6 -6 -5 -4 -3 -2 -2 -2 -2 -2 -3 -4 -4
11 10 6 6 6 5 7 8 5 7 6 9 12 7 7 6 7 6 4 -0 -2 0 -0 1 -1 -6 -5 -5 -9 -7 -5 -9 -14 -23 -27 -16 -17 -16 -12 -10 -8 -8 -8 -9 -8 -9 -11 -12 -14 -15 -14 -13 -13 -13 -13 -13 -12 -13 -13 -13 -13 -12 -12 -11 -10 -10 -10 -9 -9 -8 -8 -7 -6 -6 -5 -4 -3 -2 -1 -1 -1 -1 -1 -1 -1 -1
12 10 11 7 7 6 5 5 6 8 7 7 11 11 6 5 7 4 1 0 3 0 -8 -4 -6 -1 -2 -5 -8 -6 -6 -10 -16 -19 -25 -25 -16 -15 -11 -9 0 -8 -8 -8 -9 -10 -11 -13 -15 -15 -15 -13 -13 -13 -13 -13 -13 -13 -13 -13 -13 -12 -12 -11 -10 -10 -9 -9 -8 -8 -7 -6 -5 -5 -3 -3 -2 -1 -1 0 0 1 1 2 1 1
12 9 10 13 13 13 9 8 8 8 9 9 9 6 7 5 5 4 4 4 3 -0 -5 -3 -3 -0 -2 -7 -7 -4 -7 -13 -18 -16 -17 -22 -18 -13 -10 -9 -8 -8 -8 -9 -9 -11 -12 -13 -15 -15 -15 -14 -13 -13 -13 -13 -13 -13 -13 -13 -13 -12 -12 -11 -10 -10 -10 -9 -8 -7 -7 -5 -4 -4 -3 -3 -2 -1 0 1 1 2 3 3 3 4
13 9 12 12 11 9 8 8 8 8 7 8 9 5 3 3 5 5 5 3 3 2 1 1 -0 -4 -6 -5 -3 -4 -8 -13 -18 -23 -21 -18 -16 -12 -9 -9 -8 -8 -9 -9 -10 -11 -12 -13 -14 -14 -15 -14 -13 -13 -13 -13 -13 -13 -13 -13 -12 -12 -11 -10 -10 -10 -10 -9 -8 -7 -6 -4 -4 -3 -3 -2 -1 -0 1 3 3 4 4 4 4 6
13 10 16 10 11 12 8 9 10 7 8 6 5 3 3 2 2 3 5 4 5 3 2 -3 -2 -1 -5 -4 -3 -6 -13 -17 -19 -21 -21 -18 -15 -11 -10 -9 -8 -7 -8 -10 -11 -11 -12 -13 -13 -14 -14 -13 -13 -13 -13 -13 -13 -13 -13 -12 -12 -12 -12 -11 -11 -11 -10 -9 -8 -7 -6 -5 -4 -3 -3 -1 1 2 2 2 3 4 4 4 5 6
15 12 10 9 7 9 5 4 4 4 4 4 3 2 2 2 5 4 4 4 3 4 2 2 -3 -8 -6 -3 -4 -11 -18 -20 -21 -23 -22 -18 -14 -9 -9 -8 -8 -8 -9 -9 -11 -11 -13 -13 -14 -14 -13 -13 -13 -14 -13 -13 -13 -13 -12 -12 -12 -12 -11 -11 -11 -11 -10 -9 -8 -6 -6 -5 -4 -3 -2 -0 1 2 3 3 3 4 5 5 5 6
14 13 10 7 6 9 4 4 3 2 2 3 6 3 2 2 3 3 3 3 2 -0 0 -7 -10 -8 -4 -2 -8 -16 -19 -18 -20 -23 -23 -18 -14 -10 -9 -8 -8 -8 -8 -10 -11 -11 -13 -14 -14 -13 -13 -13 -14 -14 -14 -13 -13 -13 -12 -12 -13 -12 -12 -12 -11 -10 -9 -8 -8 -7 -6 -5 -3 -2 -1 0 1 2 3 3 3 4 4 5 6 6
13 14 9 8 5 7 6 4 3 3 5 3 1 1 3 2 2 2 2 1 1 -1 -5 -6 -5 -2 -3 -5 -11 -17 -20 -18 -19 -23 -21 -16 -12 -10 -10 -9 -8 -7 -8 -10 -11 -12 -13 -13 -13 -13 -13 -14 -14 -14 -13 -13 -13 -12 -13 -13 -12 -12 -12 -11 -11 -10 -9 -8 -7 -7 -6 -3 -2 -2 -1 -1 0 1 2 3 3 4 5 6 7 7
15 11 8 8 5 6 8 7 9 9 6 -0 4 4 4 4 4 3 2 2 -0 -1 -3 0 -2 -3 -3 -7 -13 -18 -20 -21 -22 -22 -19 -14 -10 -11 -10 -9 -8 -10 -10 -11 -11 -12 -14 -13 -13 -13 -14 -14 -13 -14 -13 -13 -13 -13 -13 -13 -13 -13 -12 -11 -11 -9 -9 -8 -7 -6 -5 -3 -3 -2 -2 -1 0 1 2 3 3 4 5 6 6 7
13 9 8 5 5 5 4 4 6 9 2 4 4 5 5 5 5 4 3 2 -2 -3 -2 -2 -3 -2 -5 -9 -14 -18 -20 -23 -22 -18 -14 -12 -11 -10 -10 -9 -10 -11 -11 -10 -12 -12 -12 -12 -12 -14 -14 -13 -14 -14 -14 -14 -14 -14 -13 -13 -13 -12 -11 -11 -10 -10 -9 -8 -7 -6 -5 -4 -3 -2 -1 -1 0 1 2 3 4 5 6 6 7 8
16 9 8 6 9 5 4 3 5 4 2 2 2 3 4 3 2 1 0 -1 -3 -2 -1 -3 -2 -3 -8 -12 -16 -19 -20 -21 -18 -15 -11 -11 -11 -11 -11 -10 -10 -11 -12 -12 -12 -12 -12 -12 -13 -14 -14 -14 -14 -14 -14 -14 -13 -13 -13 -13 -13 -11 -11 -11 -10 -10 -9 -7 -7 -6 -4 -3 -3 -2 -2 -1 -0 1 2 3 4 5 6 7 8 8
10 10 6 6 9 3 2 3 5 5 7 5 4 6 5 5 3 2 0 2 -1 -0 -0 -0 -2 -6 -11 -15 -17 -21 -20 -13 -16 -14 -11 -12 -11 -11 -11 -10 -10 -11 -13 -11 -11 -11 -12 -13 -14 -14 -14 -15 -15 -15 -14 -14 -13 -13 -13 -12 -12 -12 -11 -11 -10 -9 -8 -8 -7 -5 -4 -3 -2 -1 -1 -0 0 1 2 3 5 6 7 7 8 8
8 6 11 7 5 4 3 2 3 3 7 3 3 5 5 4 3 1 -3 -3 -5 -6 1 -0 -4 -9 -12 -16 -19 -20 -18 -20 -21 -13 -16 -14 -12 -11 -11 -10 -11 -12 -13 -12 -11 -12 -13 -14 -14 -14 -14 -14 -14 -14 -14 -14 -13 -12 -12 -12 -12 -11 -11 -10 -10 -9 -8 -7 -6 -4 -3 -3 -2 -1 -1 -0 1 2 3 4 5 7 8 8 9 9
10 10 7 4 4 3 2 1 3 4 8 5 5 4 4 3 -0 -4 0 0 -5 -0 2 -2 -6 -10 -14 -16 -18 -18 -19 -26 -22 -20 -18 -13 -11 -11 -10 -10 -11 -12 -14 -12 -12 -12 -13 -14 -14 -14 -14 -15 -15 -14 -14 -13 -13 -12 -12 -12 -12 -11 -9 -9 -9 -9 -8 -6 -5 -4 -3 -2 -1 -1 -0 0 1 3 3 5 6 8 8 9 10 10
8 7 6 6 4 5 6 3 4 5 8 8 5 4 3 -1 -4 -0 1 3 3 3 1 -3 -7 -12 -14 -17 -20 -19 -19 -23 -22 -20 -16 -12 -11 -11 -10 -10 -11 -12 -13 -11 -12 -9 -14 -14 -13 -15 -15 -14 -14 -14 -14 -13 -12 -11 -11 -12 -11 -11 -10 -10 -9 -8 -7 -5 -5 -4 -4 -2 -1 -1 -0 1 1 3 4 6 7 8 9 10 11 11
7 5 2 3 3 3 4 3 5 8 8 3 4 4 4 2 3 2 4 4 4 2 1 -4 -9 -14 -17 -20 -22 -23 -24 -24 -18 -15 -12 -12 -11 -11 -10 -11 -11 -12 -9 -9 -10 -12 -14 -14 -14 -15 -14 -14 -14 -14 -14 -13 -12 -12 -11 -11 -11 -10 -11 -9 -8 -6 -6 -5 -5 -4 -3 -2 -1 -0 0 1 3 4 5 6 8 9 10 10 11 13
11 9 9 7 9 3 2 2 4 9 7 5 5 4 5 5 5 5 5 5 3 1 -1 -5 -11 -15 -19 -22 -23 -21 -20 -19 -15 -13 -12 -11 -11 -10 -11 -11 -12 -11 -11 -13 -13 -14 -14 -14 -14 -14 -15 -13 -14 -14 -14 -13 -12 -11 -11 -11 -11 -11 -9 -7 -7 -7 -7 -6 -5 -4 -3 -2 -1 -1 0 2 3 4 5 6 8 9 11 11 12 13
13 9 7 7 8 6 2 4 7 11 5 5 5 5 5 4 7 6 4 3 2 0 -3 -8 -13 -16 -21 -22 -23 -21 -18 -15 -13 -12 -11 -11 -11 -10 -10 -11 -11 -12 -11 -12 -12 -13 -14 -14 -14 -14 -13 -14 -14 -14 -13 -12 -12 -11 -11 -11 -11 -8 -7 -7 -8 -7 -6 -5 -5 -4 -3 -2 -1 -0 1 2 3 4 5 6 7 9 10 11 12 13
10 14 13 10 10 11 8 9 12 5 5 5 5 5 5 5 5 5 4 3 1 -1 -6 -11 -16 -20 -22 -23 -21 -19 -16 -12 -12 -12 -11 -11 -10 -10 -10 -11 -12 -12 -12 -12 -13 -14 -13 -13 -14 -13 -13 -15 -15 -15 -12 -11 -11 -11 -11 -10 -8 -8 -8 -8 -7 -6 -6 -5 -4 -4 -3 -2 -1 -0 1 3 3 3 4 6 7 7 9 11 12 13
10 8 6 7 11 9 8 8 9 7 7 6 6 6 5 6 6 5 4 2 0 -2 -7 -12 -18 -22 -22 -21 -21 -17 -14 -12 -12 -11 -11 -10 -9 -10 -10 -11 -12 -12 -12 -13 -14 -14 -13 -12 -12 -12 -13 -14 -15 -14 -12 -12 -10 -11 -11 -9 -9 -8 -8 -7 -7 -7 -6 -5 -5 -4 -3 -2 -2 -1 1 2 2 3 4 5 6 7 8 11 11 11
9 6 6 9 6 8 10 6 6 6 6 6 5 6 6 6 5 3 1 1 -1 -4 -9 -14 -19 -22 -23 -22 -19 -17 -15 -13 -12 -11 -9 -9 -10 -10 -11 -11 -12 -12 -13 -13 -14 -12 -13 -12 -12 -13 -13 -14 -14 -13 -12 -12 -11 -10 -9 -9 -9 -8 -7 -7 -7 -7 -7 -6 -5 -4 -3 -3 -3 -2 -1 1 1 2 3 4 5 7 9 10 10 11
13 7 7 7 6 7 8 6 5 5 5 7 6 6 6 5 4 1 1 -1 -3 -7 -12 -17 -20 -22 -20 -21 -19 -16 -14 -14 -11 -10 -9 -9 -9 -9 -10 -11 -11 -12 -13 -13 -14 -12 -13 -13 -13 -13 -14 -14 -13 -13 -12 -11 -11 -10 -10 -9 -8 -8 -8 -8 -8 -8 -7 -6 -5 -5 -4 -4 -3 -2 -2 -1 1 1 2 3 5 7 8 9 10 11
11 12 11 7 6 7 7 7 7 7 7 7 7 7 7 5 3 -0 -2 -5 -8 -12 -15 -18 -19 -22 -22 -20 -18 -15 -14 -12 -11 -10 -9 -9 -9 -9 -10 -11 -12 -13 -13 -13 -13 -13 -13 -13 -13 -14 -14 -14 -13 -13 -12 -12 -11 -10 -10 -9 -8 -8 -8 -9 -8 -8 -7 -6 -5 -6 -5 -4 -3 -3 -2 -1 -0 1 2 3 5 7 9 11 11 13
10 11 9 10 9 10 10 9 6 9 10 6 5 6 6 4 1 -1 -4 -6 -8 -12 -17 -20 -20 -19 -19 -19 -17 -14 -13 -11 -11 -10 -10 -9 -9 -9 -11 -11 -12 -12 -12 -13 -12 -13 -13 -13 -14 -14 -14 -14 -13 -13 -12 -11 -11 -10 -10 -9 -8 -8 -9 -9 -9 -9 -8 -6 -6 -5 -5 -5 -4 -3 -3 -2 -1 0 2 6 10 10 9 10 14 16
10 13 9 12 12 13 11 9 7 7 7 7 7 5 5 2 1 -1 -3 -5 -8 -13 -18 -20 -21 -19 -18 -17 -15 -14 -13 -11 -11 -11 -10 -9 -10 -10 -11 -12 -12 -13 -12 -13 -13 -14 -14 -14 -14 -14 -14 -14 -14 -13 -13 -12 -11 -11 -10 -9 -8 -8 -9 -9 -10 -10 -9 -8 -7 -6 -6 -5 -5 -3 -2 -2 -1 -0 1 1 3 10 13 13 14 15